Other Public Products
Issued by NWS Grand Forks, ND

Home | Current Version | Previous Version | Graphics & Text | Print | Product List | Glossary On
Versions: 1 2 3 4 5 6 7 8 9 10 11 12 13 14 15 16 17 18 19 20 21 22 23 24 25 26 27 28 29 30 31 32 33 34 35 36 37 38 39 40 41 42 43 44 45 46 47 48 49 50
000
FPUS83 KFGF 242131
OPUFGF
PRAIRIE TO PINES WEATHER ROUNDUP
NATIONAL WEATHER SERVICE EASTERN NORTH DAKOTA/GRAND FORKS ND
300 PM CST WED DEC 24 2014

 **SATELLITE DATA USED TO AUGMENT SKY COVER AT AUTOMATED STATIONS**
 *****  WEATHER ACROSS EASTERN NORTH DAKOTA  *****

CITY           SKY/WX    TMP DP  RH WIND       PRES   REMARKS
GRAND FORKS    CLOUDY    27  24  89 S15       29.56F WCI  15
GRAND FORKS AF CLOUDY    28  28 100 S14       29.54F WCI  17
GRAND CITY NWS   N/A     27 N/A N/A S9          N/A  WCI  17
BUXTON           N/A     27  26  97 S10         N/A  WCI  17
DEVILS LAKE    CLOUDY    28  25  86 S13       29.45S WCI  18
FARGO          CLOUDY    27  24  89 S12       29.61F WCI  17
WAHPETON ARPT  CLOUDY    27  23  86 S8        29.63F WCI  18
$$

 *****  WEATHER ACROSS CENTRAL AND WESTERN NORTH DAKOTA  *****

CITY           SKY/WX    TMP DP  RH WIND       PRES   REMARKS
JAMESTOWN      CLOUDY    30  26  85 S12       29.52F WCI  20
BISMARCK       CLOUDY    32  23  69 SW9       29.50F WCI  24
MINOT          PTSUNNY   35  28  75 SW8       29.42F
MINOT AFB      MOSUNNY   34  34  99 W12       29.42S
GARRISON         N/A     34  29  82 SW10      29.44F
WILLISTON      CLOUDY    37  29  72 W10       29.46F
DICKINSON      CLOUDY    37  30  75 W14       29.44F
HETTINGER      CLOUDY    35  28  75 W6        29.49F
$$

 *****  OTHER OBSERVATIONS NORTHEAST NORTH DAKOTA  *****

CITY           SKY/WX    TMP DP  RH WIND       PRES   REMARKS
WALHALLA       MIX PCPN  27  27 100 SE9       29.50F WCI  17
LANGDON        CLOUDY    27  27 100 S13       29.46R FOG     WCI  16
CAVALIER       CLOUDY    27  25  93 S13       29.52F FOG     WCI  16
GRAFTON        NOT AVBL
CANDO          CLOUDY    30  27  86 SW13      29.45R WCI  20
FORT TOTTEN      N/A     29  26  90 S12       29.95  WCI  19
ROLLA          CLOUDY    28  28 100 SW9       29.41S WCI  20
RUGBY          MOCLDY    30  27  86 SW12      29.43S WCI  21
 ***** THE ABOVE OBSERVATIONS ARE NON NWS ARE NOT QUALITY
        CONTROLLED AND MAY MIS-REPORT RAIN FOR SNOW...
$$

 *****  OTHER OBSERVATIONS SOUTHEAST NORTH DAKOTA *****

CITY           SKY/WX    TMP DP  RH WIND       PRES   REMARKS
COOPERSTOWN    NOT AVBL
VALLEY CITY    MIX PCPN  27  27 100 S17       29.53F WCI  14
OAKES            N/A     27  27 100 S15G21    29.59F FOG     WCI  15
GWINNER        CLOUDY    30  30 100 CALM      29.60F
BUFFALO        NOT AVBL
WYNDMERE         N/A     27  27 100 SW9         N/A  WCI  17
 ***** THE ABOVE OBSERVATIONS ARE NON NWS ARE NOT QUALITY
       CONTROLLED AND MAY MIS-REPORT RAIN FOR SNOW...
$$

  *****  WEATHER ACROSS NORTHERN MINNESOTA  *****

CITY           SKY/WX    TMP DP  RH WIND       PRES   REMARKS
FLAG ISLAND    CLOUDY    30  28  93 S6        29.55F WCI  24
WARROAD        CLOUDY    30  27  86 S7        29.56F WCI  23
ROSEAU         CLOUDY    30  27  86 S12       29.56F WCI  21
HALLOCK        CLOUDY    27  25  93 S15       29.55F WCI  15
THF RVR FALLS  CLOUDY    27  25  93 S13       29.57F WCI  16
HALSTAD          N/A     27  25  91 S14         N/A  WCI  16
FOSSTON        CLOUDY    27  25  93 S10       29.58F WCI  17
BAUDETTE       CLOUDY    32  27  81 SW8       29.57F WCI  25
WASKISH        CLOUDY    30  30 100 CALM      29.58F
CROOKSTON      CLOUDY    27  27 100 S16       29.58F FOG     WCI  14
$$
  *****  WEATHER ACROSS CENTRAL AND WEST MINNESOTA  *****

CITY           SKY/WX    TMP DP  RH WIND       PRES   REMARKS
BEMIDJI        CLOUDY    31  28  88 SW3       29.56F
PARK RAPIDS    CLOUDY    32  27  81 W5        29.59F
WADENA         CLOUDY    28  27  93 W8        29.61F WCI  20
DETROIT LAKES  CLOUDY    28  28 100 SW7       29.61F WCI  21
MOORHEAD       CLOUDY    27  27 100 S9        29.62F WCI  17
FERGUS FALLS   CLOUDY    27  25  93 SW8       29.66F WCI  18
ELBOW LAKE     CLOUDY    26  25  97 W6        29.64F WCI  19
MORRIS MN      CLOUDY    28  27  93 W8        29.64F WCI  20
STAPLES        CLOUDY    30  28  93 W8        29.61F WCI  23
WHEATON        CLOUDY    25  25 100 S6        29.66F WCI  18
$$
  *****  WEATHER ELSEWHERE ACROSS MINNESOTA  *****

CITY           SKY/WX    TMP DP  RH WIND       PRES   REMARKS
DULUTH         LGT SNOW  33  29  85 NW7       29.57F FOG
INTRNTL FALLS  CLOUDY    33  31  92 SW3       29.57F FOG
ELY            FLURRIES  30  30 100 CALM      29.56F
CLOQUET        CLOUDY    34  30  86 CALM      29.59F
BRAINERD       CLOUDY    33  30  88 W5        29.61F
HIBBING        CLOUDY    34  30  85 CALM      29.58F
ALEXANDRIA     CLOUDY    29  26  89 W9        29.63F WCI  20
SAINT CLOUD    CLOUDY    36  30  79 NW7       29.63F
MINNEAPOLIS    CLOUDY    35  30  82 NW9       29.64S
$$

  *****  WEATHER ACROSS SOUTH DAKOTA  *****

CITY           SKY/WX    TMP DP  RH WIND       PRES   REMARKS
SIOUX FALLS    CLOUDY    26  24  92 W7        29.70F FOG     WCI  18
BROOKINGS      NOT AVBL
WATERTOWN      CLOUDY    25  23  92 SW9       29.62F FOG     WCI  15
HURON          CLOUDY    28  24  85 S12       29.67F WCI  18
SISSETON       NOT AVBL
ABERDEEN       CLOUDY    29  25  85 S12       29.63F WCI  19
MITCHELL       PTSUNNY   30  26  85 SW9       29.70F WCI  22
PIERRE         CLOUDY    28  21  75 S12       29.57F WCI  18
MOBRIDGE       PTSUNNY   29  24  82 E5        29.52F WCI  24
RAPID CITY     CLOUDY    36  27  69 SE5       29.52F
$$

  *****  SOME WEATHER IN NEARBY STATES *****

CITY           SKY/WX    TMP DP  RH WIND       PRES   REMARKS
GLASGOW MT     CLOUDY    37  30  75 NW8       29.50S
GREAT FALLS MT SNOW      32  31  96 N3        29.49F VSB 1/2
CHEYENNE WY    CLOUDY    39  17  41 NW15G29   29.64F
SCOTTSBLUFF NE PTSUNNY   42  25  50 W17G26    29.62F
OMAHA NE       CLOUDY    30  26  85 W8        29.79S WCI  22
DES MOINES IA  CLOUDY    35  30  82 NW14      29.72R
DAVENPORT IA   CLOUDY    36  31  82 NW13      29.58S
CHICAGO IL     CLOUDY    39  33  79 W12       29.48R
EAU CLAIRE WI  CLOUDY    36  30  79 NW9       29.58F
LA CROSSE WI   CLOUDY    37  31  78 NW9       29.58S
$$

  *****  SOME NATIONAL WEATHER *****

CITY           SKY/WX    TMP DP  RH WIND       PRES   REMARKS
LA GUARDIA NY  FOG       45  43  93 NE12      29.71F VSB 1/2
RALEIGH NC     CLOUDY    65  61  87 S13       29.70S
ATLANTA GA     CLOUDY    63  55  77 W9G21     29.68R
NEW ORLEANS LA PTSUNNY   54  35  48 W17G24    29.93R
OKLAHOMA CITY  MOSUNNY   49  28  44 NW14      29.93F
ALBUQUERQUE NM MOSUNNY   38   9  30 CALM      30.07F
SALT LAKE CITY CLOUDY    41  18  39 S12       29.81F
LOS ANGELES CA PTSUNNY   71  46  40 SW5       29.97F
BOISE ID       CLOUDY    33  29  85 W6        29.61F
SEATTLE WA     CLOUDY    43  38  82 S5        29.91S
$$

*** WEATHER ACROSS MANITOBA...SASKATCHEWAN AND ONTARIO ***
                ***ONTARIO***

CITY           SKY/WX    TMP DP  RH WIND       PRES   REMARKS
GERALDTON      HAIL      27  25  93 N7        29.55F WCI  19
THUNDER BAY    CLOUDY    34  30  86 N5        29.57F
SIOUX LOOKOUT  CLOUDY    30  28  93 CALM      29.57
TORONTO        DRIZZLE   48  46  93 E9        29.38F
BIG TROUT LK   FLURRIES  23  23 100 E3        29.66F
PICKLE LAKE    FLURRIES  27  25  93 E5        29.60F WCI  21
DRYDEN         CLOUDY    30  30 100 SE2       29.55F
KENORA         CLOUDY    30  27  86 S6        29.55  WCI  24
$$
                *** MANITOBA***

CITY           SKY/WX    TMP DP  RH WIND       PRES   REMARKS
BRANDON        CLOUDY    30  27  86 SW10      29.39F WCI  21
DAUPHIN        CLOUDY    27  23  86 SE8       29.38F WCI  18
ISLAND LAKE    FLURRIES  25  23  93 E5        29.56F WCI  19
PILOT MOUND    NOT AVBL
THE PAS        LGT SNOW  23  21  93 E8        29.46S VSB 1   WCI  14
THOMPSON       FLURRIES  21  19  93 E3        29.57F
WINNIPEG       FLURRIES  27  23  86 S14G23    29.52  WCI  15
LYNN LAKE      FLURRIES  21  19  93 CALM      29.51S
CHURCHILL      CLOUDY    18  16  93 SE10      29.68F WCI   6
GILLAM         FLURRIES  19  18  93 E3        29.64F
$$
                ***SASKATCHEWAN***

CITY           SKY/WX    TMP DP  RH WIND       PRES   REMARKS
ESTEVAN        PTSUNNY   32  25  74 NW15      29.43F WCI  22
KINDERSLEY     PTSUNNY   25  18  74 W8        29.50  WCI  16
LLOYDMINSTER   CLOUDY    25  23  93 NW15G22   29.49R WCI  12
PRINCE ALBERT  CLOUDY    25  23  93 NW7       29.43S WCI  17
REGINA         PTSUNNY   28  23  80 W12       29.44F WCI  18
YORKTON          N/A     27  25  93 NW15      29.37S WCI  15


USA.gov is the U.S. government's official web portal to all federal, state and local government web resources and services.